Location: ???????
(55.7027°N, 37.3832°E)
Time: 06:59:08
(UTC+00:00)

Cosmos 2369 - Pass Details

Date: 14 April 2026
Orbit: 838 x 855 km, 71.0° (Epoch: 10 May)

Event Time Altitude Azimuth Distance (km) Brightness Sun altitude
Rises 22:37:02 0° 324° (NW) 3,414 7.4 -23.2°
Reaches altitude 10° 22:39:34 10° 330° (NNW) 2,479 6.6 -23.1°
Maximum altitude 22:45:07 52° 46° (NE) 1,055 4.5 -22.8°
Drops below altitude 10° 22:50:40 10° 123° (ESE) 2,478 6.0 -22.5°
Sets 22:53:11 0° 128° (SE) 3,413 6.7 -22.4°
